Weather in Mais

Russia / Penza Oblast     53°52′31″N   46°01′47″E
temp.,
°C
wind,
m/s
gust,
m/s
humid.,
%
clouds,
%
prec.,
mm/h
press.,
hPa
HPBL,
m
28 february, sun
sun2800:00−16nnw4109394 0.0 1009457
03:00−18nnw4109568 0.0 1011310
06:00−20nw279747 0.0 1012205
09:00−18nw379343 0.0 1012287
12:00−14nw478969 0.0 1013427
15:00−13nw478968 0.0 1014494
18:00−16nw3695100 0.0 1016163
21:00−19nw229795 0.0 101820
1 march, mon
mon100:00−19wnw129857 0.0 102020
03:00−20wnw129972 0.0 102220
06:00−20wnw129975 0.0 102220
09:00−16wnw139272 0.0 1024189
12:00−11wnw248789 0.0 1024400
15:00−9w359092 0.0 1023405
18:00−13wsw249693 0.0 102196
21:00−12sw389793 0.0 1020210
2 march, tue
tue200:00−8sw51293100 0.1 1016438
03:00−6sw61494100 0.3 1012543
06:00−3sw61395100 1.1 1008647
09:00−2wsw61396100 2.8 1004710
12:000w510100100 1.9 1002653
15:000nw51095100 3.0 1001824
18:00−3wnw3695100 0.1 1002170
21:00−4wnw4129398 0.7 1003435
3 march, wed
wed300:00−4wnw31095100 0.1 1003404
03:00−4nw41095100 0.4 1004538
06:00−5wnw4119599 0.1 1004502
09:00−4nw5109398 0.4 1006585
12:00−3nw6992100 0.3 1007747
15:00−4nw61092100 0.8 1009766
18:00−5nw61293100 0.8 1010704
21:00−7nnw51292100 0.9 1014579
4 march, thu
thu400:00−9wnw289699 0.1 1015227
03:00−10w379699 0.2 1015198
06:00−13wsw269770 0.0 1016127
09:00−8wsw489585 0.1 1015332
12:00−3wsw71389100 0.0 1012708
15:00−1wsw8158799 0.0 1010833
18:00−2wsw7168799 0.0 1008766
21:00−3sw7178896 0.0 1007748